Wind_Speed
10 9 8 6 5 4 3 3 1 1 2 4 6 7 7 7 9 10 9 9 10 11 11 11 11 10 9 9 9 9 8 7 6 7 7 7 6 6 5 5 4 4 4 4
11 9 8 7 7 6 5 5 4 2 3 6 7 7 7 7 8 9 9 9 9 10 11 11 11 10 9 8 8 8 8 7 7 7 7 7 7 7 6 5 5 5 4 4
11 11 11 9 7 6 7 7 7 7 7 8 8 8 7 8 9 9 8 8 8 8 9 9 10 10 10 9 8 8 8 8 8 8 8 8 8 8 6 6 5 5 5 5
13 12 12 11 10 8 9 9 9 9 10 9 10 10 7 8 9 8 8 9 8 7 7 8 9 10 10 10 9 9 8 8 8 8 8 8 8 8 6 6 5 5 5 5
13 12 12 11 11 11 10 10 11 11 12 11 10 11 8 9 9 8 8 9 8 8 7 8 9 10 10 11 10 10 8 8 9 9 8 8 8 8 7 6 6 5 5 6
13 13 13 13 13 13 12 12 12 12 13 13 12 14 11 10 9 9 9 9 10 9 8 9 10 10 10 11 11 10 9 9 9 9 9 9 9 8 8 7 7 6 7 6
15 15 14 14 14 13 14 14 13 13 13 13 12 14 13 12 10 11 11 11 11 9 10 10 11 11 11 10 11 11 9 9 9 9 9 9 9 9 9 8 8 7 7 7
15 15 14 14 14 13 14 14 15 14 14 12 12 13 12 12 12 12 12 11 11 10 12 12 11 13 12 11 11 11 10 10 10 10 9 9 9 9 9 9 8 8 8 8
17 16 16 16 15 14 15 15 15 16 16 15 13 13 12 13 13 13 14 13 11 11 11 12 13 13 12 11 11 12 12 12 11 11 9 10 10 10 9 9 9 9 9 9
18 18 17 17 18 17 17 16 17 17 16 16 13 12 14 14 14 14 15 14 11 12 13 13 13 13 13 12 11 11 12 12 12 12 11 11 11 11 11 10 10 10 10 10
20 19 18 18 19 18 18 18 18 18 18 17 16 15 14 14 14 15 16 16 16 15 15 16 15 15 15 15 14 13 13 13 13 13 12 12 12 12 12 12 12 11 11 11
21 22 21 19 19 18 19 19 19 20 19 20 20 18 16 16 16 16 18 18 17 18 18 16 15 16 16 16 15 15 14 14 13 13 14 13 13 13 14 14 13 13 13 14
24 24 23 22 22 21 21 21 21 21 21 22 22 20 19 18 18 19 19 18 19 18 18 16 16 17 16 16 17 16 16 15 14 14 15 15 15 15 15 15 15 15 15 15
27 27 27 26 25 24 23 23 23 24 25 24 23 23 21 21 20 20 21 21 20 18 18 17 17 16 17 18 19 19 17 17 15 15 16 17 17 17 16 16 16 16 16 16
29 30 30 28 27 26 25 25 25 26 27 26 25 25 24 24 22 23 24 23 21 19 20 20 19 19 20 20 20 20 20 19 18 19 19 19 18 18 18 18 18 18 18 18
31 31 30 29 28 28 27 27 27 27 27 27 27 27 26 26 25 24 25 24 22 20 21 22 21 21 21 21 22 22 22 21 21 21 20 20 20 20 20 20 20 20 20 19
31 31 31 30 29 29 30 28 28 28 28 28 28 28 28 28 26 25 25 25 26 24 23 24 23 22 22 21 22 22 22 22 22 22 21 20 20 21 21 22 22 21 21 20
31 31 31 30 29 31 30 30 29 28 29 30 29 28 27 27 26 26 27 27 26 25 24 24 23 23 23 24 24 23 23 22 22 22 21 22 22 21 21 22 22 22 22 22
31 31 31 31 30 30 29 28 28 28 29 30 30 29 28 28 28 27 27 27 27 27 27 26 26 25 25 24 25 24 23 23 22 22 21 21 22 22 22 22 22 22 24 24
30 31 31 31 31 31 30 29 29 29 30 31 31 30 29 29 29 28 28 28 28 29 28 26 25 25 25 26 26 23 23 24 23 23 23 23 23 23 23 23 23 23 24 25
30 31 31 31 32 32 31 29 29 30 31 31 31 31 30 30 29 29 29 29 30 29 28 28 27 26 26 27 27 26 25 25 24 24 24 24 23 23 24 24 24 25 25 25
28 30 31 31 32 32 31 30 31 32 32 31 31 31 30 30 30 30 29 29 30 30 29 28 28 28 28 27 27 26 25 25 25 24 24 24 24 24 24 24 24 25 25 25
29 29 30 31 32 33 34 33 33 34 34 34 32 32 32 30 30 30 30 30 31 30 30 28 29 29 29 28 28 28 26 26 26 25 25 25 25 25 25 25 24 23 23 23
29 29 30 31 32 34 34 35 36 36 35 34 34 32 32 32 31 32 32 31 30 30 29 29 30 30 29 29 28 28 27 26 26 26 26 26 26 26 27 26 25 24 24 24
29 30 31 32 33 33 34 34 34 35 35 35 34 33 32 33 32 33 33 32 31 30 29 29 30 30 29 29 29 28 29 28 27 27 26 27 27 27 27 27 27 26 26 26
28 29 30 32 32 32 32 32 33 34 34 34 34 35 34 32 32 32 33 32 31 30 29 29 30 30 29 29 30 31 30 30 29 28 28 27 27 27 27 27 27 27 27 27
Wind_Direction
214 213 213 216 229 235 216 235 251 0 332 313 310 316 325 330 333 332 339 349 352 353 357 2 3 2 1 359 360 360 359 1 5 10 12 9 6 3 0 358 355 349 345 341
219 215 216 223 233 242 243 245 249 256 276 288 294 296 308 318 320 321 332 343 345 347 350 353 354 354 351 349 349 353 354 354 357 356 355 356 356 354 350 348 345 340 340 341
218 213 218 224 232 242 250 246 247 253 260 275 279 283 295 304 308 312 319 326 329 338 339 341 345 346 344 341 342 344 347 348 346 345 344 343 341 342 339 340 335 332 332 334
220 219 225 231 234 239 247 243 245 257 262 272 278 277 279 293 300 304 312 313 314 318 328 335 336 337 339 339 339 341 341 342 340 337 338 336 334 336 334 330 327 325 326 327
226 224 229 231 236 243 246 245 252 260 259 265 271 279 271 288 298 308 316 313 305 312 316 326 331 332 335 335 334 334 334 332 331 330 329 328 329 330 325 321 317 316 319 321
229 228 234 238 239 243 249 252 256 262 261 264 269 275 275 284 299 312 311 311 305 307 312 318 322 326 328 328 326 323 322 321 320 320 322 325 325 327 324 322 314 315 316 316
228 229 236 238 241 246 254 255 257 258 260 266 272 276 281 286 289 299 303 308 308 304 309 311 311 318 320 323 326 322 318 315 314 314 315 316 319 321 318 317 315 311 310 311
230 230 230 233 242 252 255 252 257 262 266 272 276 279 276 284 281 287 292 294 300 299 306 306 306 313 317 321 323 325 322 314 309 305 306 307 309 314 312 308 307 304 304 305
238 237 233 235 239 247 247 248 257 261 264 270 276 278 273 278 282 286 289 288 291 295 300 303 306 309 313 314 317 316 316 311 305 300 301 302 300 303 303 299 297 297 298 299
245 245 238 238 240 240 245 251 255 258 264 269 271 274 280 283 281 286 290 286 294 299 299 302 306 309 310 311 313 311 309 307 303 301 302 304 300 296 297 296 293 293 293 297
244 244 239 238 238 241 243 242 246 253 260 267 271 272 278 281 280 282 281 283 290 298 298 298 299 304 308 311 308 303 303 302 304 304 302 303 301 293 291 294 293 291 288 289
244 244 241 237 239 243 248 245 245 249 255 259 264 268 274 279 279 281 281 282 285 293 294 295 298 303 307 308 307 304 302 302 304 303 301 301 300 295 290 290 291 290 288 288
244 244 244 242 238 239 241 243 244 246 251 255 258 265 270 278 282 281 280 280 283 284 289 285 293 300 302 304 302 300 300 303 302 301 298 296 296 294 291 289 291 291 290 289
245 245 246 246 243 242 241 242 244 247 250 252 255 260 266 270 272 277 278 280 279 277 282 283 287 294 297 299 298 297 298 298 297 297 297 294 290 289 289 291 292 291 290 289
243 244 246 248 247 246 244 243 244 248 252 254 255 257 261 265 270 274 275 276 276 275 277 280 283 287 290 292 294 295 293 294 294 293 291 290 286 284 284 287 290 288 287 286
243 246 247 248 248 246 245 245 245 248 252 255 257 256 257 260 265 267 270 273 275 273 275 278 279 280 284 286 288 290 291 292 292 291 291 289 286 284 283 283 283 285 284 284
244 248 249 248 247 248 247 247 247 248 252 254 256 256 256 260 262 264 268 270 272 273 274 277 278 277 280 282 284 285 287 288 288 289 288 287 287 286 284 280 280 280 280 281
247 247 248 248 246 247 249 249 250 251 252 255 258 258 258 258 261 264 267 271 273 272 273 274 279 282 283 286 287 286 286 285 286 286 286 286 287 287 284 281 279 277 277 276
246 248 249 249 248 248 249 250 250 253 254 256 258 258 258 258 262 266 267 270 271 272 275 276 278 280 281 283 283 283 284 285 286 287 288 286 286 285 284 283 280 278 276 276
244 246 249 252 251 251 251 251 251 253 254 256 256 254 257 260 264 267 270 271 271 272 273 277 279 280 283 284 285 284 284 285 284 286 287 286 286 283 283 283 282 280 278 275
245 247 249 252 253 253 253 254 253 253 255 256 257 256 258 263 267 269 270 270 271 271 274 279 281 282 284 287 285 284 285 285 283 284 284 284 285 284 282 282 282 280 279 276
247 247 249 252 254 255 256 256 255 257 258 259 261 258 261 263 266 269 271 271 273 272 274 277 279 281 282 283 282 284 284 284 285 285 283 284 286 285 282 282 282 279 277 275
250 252 252 252 254 255 256 257 258 260 261 262 264 262 260 263 266 266 269 269 271 273 274 276 278 280 280 281 282 283 284 284 284 284 284 286 287 284 283 282 281 280 278 276
250 253 254 254 254 255 257 258 258 258 260 262 262 263 262 262 264 265 269 269 269 272 274 275 276 279 280 280 282 283 284 283 284 284 284 284 283 282 281 281 280 280 279 278
252 252 254 254 257 259 261 261 260 259 258 259 260 261 262 263 264 266 267 270 272 273 274 276 277 278 278 279 281 281 282 282 282 283 284 284 282 280 280 279 279 279 278 276
254 254 254 255 257 259 262 262 263 263 261 260 260 260 262 264 265 265 267 270 271 273 274 277 279 280 279 280 279 280 280 280 280 282 282 283 282 281 279 278 277 277 277 275
Height
5917 5918 5919 5919 5919 5919 5919 5919 5919 5919 5918 5917 5917 5916 5916 5915 5914 5913 5912 5911 5910 5909 5908 5906 5904 5902 5901 5899 5898 5896 5894 5893 5892 5890 5889 5888 5888 5886 5885 5884 5883 5882 5881 5880
5915 5916 5917 5916 5916 5917 5917 5917 5918 5918 5917 5916 5915 5915 5914 5913 5913 5912 5911 5910 5909 5908 5907 5905 5904 5902 5901 5899 5897 5896 5894 5893 5891 5890 5889 5888 5887 5885 5884 5883 5882 5881 5880 5879
5912 5914 5913 5914 5914 5915 5915 5916 5916 5916 5915 5914 5914 5914 5914 5912 5911 5910 5910 5909 5908 5907 5906 5905 5903 5901 5900 5898 5897 5895 5893 5892 5891 5889 5888 5887 5885 5884 5883 5882 5881 5880 5879 5877
5909 5910 5910 5910 5911 5912 5913 5913 5914 5913 5913 5912 5913 5911 5912 5910 5909 5908 5907 5907 5906 5904 5904 5903 5902 5900 5899 5897 5895 5894 5892 5891 5889 5888 5887 5886 5884 5883 5882 5881 5880 5878 5878 5876
5906 5907 5907 5908 5909 5909 5910 5910 5911 5910 5910 5910 5910 5909 5910 5908 5907 5906 5905 5904 5904 5903 5903 5902 5901 5899 5897 5895 5894 5892 5891 5889 5888 5886 5885 5884 5883 5881 5880 5879 5878 5877 5876 5875
5902 5903 5904 5905 5906 5906 5907 5907 5907 5907 5907 5907 5907 5906 5907 5906 5905 5903 5902 5902 5902 5901 5900 5900 5899 5897 5895 5893 5892 5890 5889 5887 5886 5884 5883 5882 5881 5880 5879 5878 5876 5875 5875 5874
5898 5899 5901 5902 5902 5903 5904 5904 5904 5904 5904 5904 5904 5903 5904 5903 5901 5900 5900 5899 5899 5898 5898 5898 5896 5894 5893 5891 5890 5888 5887 5885 5883 5882 5881 5880 5879 5878 5877 5876 5875 5874 5873 5872
5894 5896 5897 5898 5899 5900 5900 5901 5901 5901 5900 5900 5900 5899 5900 5899 5898 5897 5897 5896 5896 5896 5895 5895 5894 5892 5890 5889 5887 5886 5884 5883 5881 5880 5879 5878 5877 5876 5875 5874 5873 5872 5871 5870
5889 5892 5893 5894 5895 5896 5896 5897 5897 5897 5896 5896 5896 5896 5895 5895 5894 5893 5893 5893 5893 5892 5892 5892 5891 5889 5887 5886 5884 5882 5881 5880 5878 5877 5876 5875 5874 5873 5872 5871 5870 5869 5868 5868
5884 5886 5889 5890 5891 5892 5893 5893 5893 5893 5893 5892 5893 5892 5892 5891 5890 5890 5890 5890 5890 5890 5889 5888 5887 5886 5885 5882 5880 5878 5877 5875 5874 5873 5872 5872 5871 5870 5869 5869 5868 5867 5866 5865
5879 5881 5883 5884 5885 5887 5888 5888 5888 5888 5889 5888 5888 5891 5889 5887 5886 5886 5886 5886 5886 5886 5885 5884 5884 5883 5881 5879 5878 5875 5872 5871 5870 5870 5869 5868 5867 5866 5866 5865 5864 5863 5863 5861
5873 5875 5877 5879 5881 5881 5882 5882 5883 5884 5885 5884 5884 5887 5885 5884 5883 5882 5882 5882 5882 5882 5880 5879 5879 5878 5877 5876 5874 5871 5869 5867 5866 5866 5865 5864 5863 5862 5862 5861 5860 5859 5859 5858
5867 5869 5871 5873 5877 5877 5877 5877 5878 5879 5880 5880 5880 5882 5880 5879 5879 5878 5878 5878 5878 5877 5876 5875 5874 5873 5872 5871 5870 5867 5865 5864 5863 5862 5861 5860 5859 5858 5857 5857 5856 5855 5854 5853
5861 5863 5865 5867 5868 5870 5871 5872 5872 5873 5873 5874 5875 5875 5875 5874 5874 5874 5874 5874 5873 5873 5872 5870 5869 5869 5867 5866 5865 5863 5861 5860 5859 5858 5857 5856 5855 5854 5853 5852 5851 5850 5849 5848
5854 5856 5857 5860 5862 5863 5865 5866 5867 5867 5867 5868 5869 5869 5869 5869 5869 5869 5869 5868 5868 5868 5868 5867 5865 5864 5863 5861 5860 5858 5856 5854 5853 5852 5852 5850 5849 5848 5847 5846 5845 5844 5843 5843
5847 5849 5851 5853 5855 5856 5858 5859 5860 5860 5861 5861 5862 5863 5863 5863 5863 5863 5863 5862 5862 5862 5862 5861 5860 5859 5857 5856 5854 5853 5851 5849 5848 5847 5845 5844 5843 5842 5841 5840 5839 5839 5837 5837
5840 5842 5844 5846 5847 5848 5850 5852 5852 5852 5853 5854 5855 5857 5856 5856 5857 5857 5857 5856 5856 5856 5855 5854 5852 5851 5851 5849 5848 5846 5845 5843 5842 5840 5839 5838 5837 5835 5834 5833 5833 5832 5831 5831
5833 5834 5836 5838 5840 5841 5845 5844 5845 5845 5845 5847 5848 5849 5849 5850 5850 5849 5850 5850 5849 5849 5848 5847 5846 5845 5844 5843 5841 5840 5838 5836 5835 5834 5833 5831 5830 5828 5827 5826 5826 5825 5825 5825
5825 5827 5828 5830 5831 5833 5836 5837 5838 5838 5839 5840 5840 5841 5842 5842 5842 5842 5842 5842 5842 5842 5841 5840 5839 5838 5836 5835 5834 5832 5830 5830 5828 5827 5826 5825 5823 5822 5820 5820 5819 5818 5818 5818
5817 5818 5820 5821 5823 5825 5829 5829 5830 5831 5831 5832 5832 5834 5835 5835 5835 5836 5835 5835 5834 5833 5832 5831 5830 5829 5828 5827 5826 5824 5823 5823 5821 5820 5819 5818 5816 5815 5814 5813 5812 5811 5810 5810
5809 5810 5812 5813 5815 5817 5820 5821 5822 5824 5825 5825 5825 5826 5827 5827 5828 5829 5828 5827 5827 5826 5825 5824 5823 5822 5821 5820 5819 5817 5816 5814 5813 5813 5812 5810 5809 5808 5807 5806 5805 5804 5802 5802
5801 5803 5805 5806 5807 5811 5811 5812 5814 5815 5816 5816 5817 5818 5819 5819 5820 5821 5820 5819 5819 5818 5817 5816 5815 5814 5814 5813 5811 5809 5808 5807 5806 5805 5804 5803 5802 5801 5800 5799 5797 5796 5794 5794
5793 5796 5797 5799 5801 5801 5802 5804 5805 5806 5807 5808 5809 5809 5811 5811 5812 5812 5813 5812 5811 5810 5809 5808 5807 5806 5805 5804 5803 5802 5801 5799 5798 5797 5796 5795 5794 5793 5792 5791 5789 5788 5786 5786
5786 5787 5789 5790 5790 5791 5793 5794 5796 5797 5798 5798 5799 5801 5802 5803 5804 5804 5804 5804 5803 5802 5801 5800 5799 5798 5797 5796 5795 5794 5792 5791 5790 5789 5788 5787 5786 5785 5783 5782 5781 5780 5779 5779
5778 5779 5780 5781 5782 5783 5784 5785 5786 5787 5788 5789 5790 5791 5792 5793 5794 5795 5795 5795 5793 5792 5792 5791 5790 5789 5788 5787 5786 5785 5784 5782 5781 5780 5780 5779 5777 5776 5775 5774 5773 5772 5772 5771
5770 5771 5771 5772 5774 5774 5775 5776 5777 5777 5778 5779 5780 5781 5782 5783 5784 5785 5785 5785 5785 5784 5784 5783 5782 5780 5779 5778 5777 5776 5775 5774 5773 5772 5771 5770 5769 5768 5767 5765 5765 5764 5764 5763